This is the latest recevied weather packets stored in our database for station/object HB9FRQ-10. If no packets are shown the sender has not sent any weather packets the latest 10 day(s).
| Time | Temp. | Humidity | Pressure | Rain* | Wind** | Luminosity | Snow |
|---|---|---|---|---|---|---|---|
| 1777380839 | 22.22° C | 36% | 1016.4 hPa | - | - | - | - |
| 1777379945 | 22.22° C | 34% | 1016.5 hPa | - | - | - | - |
| 1777379045 | 22.78° C | 36% | 1016.5 hPa | - | - | - | - |
| 1777378145 | 22.78° C | 35% | 1016.5 hPa | - | - | - | - |
| 1777377245 | 21.67° C | 37% | 1016.5 hPa | - | - | - | - |
| 1777376345 | 22.22° C | 36% | 1016.6 hPa | - | - | - | - |
| 1777375444 | 21.67° C | 37% | 1016.6 hPa | - | - | - | - |
| 1777374544 | 21.67° C | 38% | 1016.7 hPa | - | - | - | - |
| 1777373644 | 20.56° C | 37% | 1016.7 hPa | - | - | - | - |
| 1777372744 | 21.11° C | 37% | 1016.8 hPa | - | - | - | - |
| 1777371844 | 20° C | 38% | 1016.8 hPa | - | - | - | - |
| 1777370944 | 20.56° C | 39% | 1016.9 hPa | - | - | - | - |
| 1777370044 | 20° C | 42% | 1017 hPa | - | - | - | - |
| 1777369144 | 19.44° C | 39% | 1017 hPa | - | - | - | - |
| 1777368244 | 20° C | 38% | 1016.9 hPa | - | - | - | - |
| 1777367344 | 18.89° C | 39% | 1017 hPa | - | - | - | - |
| 1777366444 | 17.78° C | 40% | 1017.1 hPa | - | - | - | - |
| 1777365544 | 17.22° C | 40% | 1017 hPa | - | - | - | - |
| 1777364643 | 17.22° C | 41% | 1017.1 hPa | - | - | - | - |
| 1777363743 | 16.67° C | 40% | 1016.9 hPa | - | - | - | - |
| 1777362844 | 17.22° C | 39% | 1017 hPa | - | - | - | - |
| 1777361943 | 18.33° C | 39% | 1017 hPa | - | - | - | - |
| 1777361043 | 16.67° C | 43% | 1017 hPa | - | - | - | - |
| 1777360143 | 16.67° C | 46% | 1017 hPa | - | - | - | - |
| 1777359243 | 15.56° C | 46% | 1017 hPa | - | - | - | - |
* Rain since midnight (hover to see other rain measurements)
** Current wind speed in m/s (hover to see current wind gust speed)